Regional Weather Roundup
Issued by NWS Goodland, KS

Home | Current Version | Previous Version | Graphics & Text | Print | Product List | Glossary On
Versions: 1 2 3 4 5 6 7 8 9 10 11 12 13 14 15 16 17 18 19 20 21 22 23 24 25 26 27 28 29 30 31 32 33 34 35 36 37 38 39 40 41 42 43 44 45 46 47 48 49 50
000
ASUS43 KGLD 020959
RWRGLD

GOODLAND FORECAST AREA HOURLY WEATHER ROUNDUP
NATIONAL WEATHER SERVICE GOODLAND KS
400 AM MDT TUE JUN 02 2015

...OFFICIAL OBSERVATIONS...

CITY           SKY/WX    TMP DP  RH WIND       PRES   REMARKS
GOODLAND KS    CLOUDY    60  54  80 E9        29.99F
HILL CITY KS   CLOUDY    65  61  87 SE6       29.97F
IMPERIAL NEB   CLOUDY    60  56  86 E8        29.96F
MCCOOK NEB     CLOUDY    63  57  81 E10       29.92F
AKRON CO       PTCLDY    57  56  96 SE25G31   29.98F THUNDER
BURLINGTON CO  PTCLDY    62  58  86 E7G31     30.00F
LIMON CO       PTCLDY    57  47  69 SE9       30.01F
$$

...UNOFFICIAL OBSERVATIONS...

CITY           SKY/WX    TMP DP  RH WIND       PRES   REMARKS
COLBY KS       PTCLDY    61  59  94 E10       29.98F
GOVE KS          N/A     66  32  28 MISG        N/A
NORTON KS      CLEAR     63  57  82 E7        29.95S
SHARON SPRINGS   N/A     64  61  91 MISG        N/A
KIT CARSON CO    N/A     59  52  77 MISG        N/A
$$



USA.gov is the U.S. government's official web portal to all federal, state and local government web resources and services.